Regional Weather Roundup
Issued by NWS

Home | Current Version | Previous Version | Graphics & Text | Print | Product List | Glossary On
Versions: 1 2 3 4 5 6 7 8 9 10 11 12 13 14 15 16 17 18 19 20 21 22 23 24 25 26 27 28 29 30 31 32 33 34 35 36 37 38 39 40 41 42 43 44 45 46 47 48 49 50
000
ASUS45 KPSR 050100
RWRAZ

ARIZONA HOURLY REGIONAL WEATHER ROUNDUP
NATIONAL WEATHER SERVICE PHOENIX AZ
600 PM MST TUE AUG 04 2015

NOTE: FAIR INDICATES FEW OR NO CLOUDS BELOW 12,000 FEET WITH NO
SIGNIFICANT WEATHER AND/OR OBSTRUCTIONS TO VISIBILITY.

AZZ001>003-036-050200-
NORTHWEST ARIZONA

CITY           SKY/WX    TMP DP  RH WIND       PRES   REMARKS
KINGMAN        SUNNY     98  28   8 SW10      29.97F
$$

AZZ004>008-015-016-018-050200-
NORTH CENTRAL ARIZONA

CITY           SKY/WX    TMP DP  RH WIND       PRES   REMARKS
GRAND CANYON   SUNNY     85  26  11 W8G20     30.23F
WILLIAMS       SUNNY     84  27  12 W13       30.30F
PRESCOTT       SUNNY     90  27  10 W12       30.13S
FLAGSTAFF      NOT AVBL
PAYSON         SUNNY     91  30  11 W10       30.14F
PAGE           MOSUNNY   96  33  11 NE9       29.99F
$$

AZZ009>014-017-050200-
NORTHEAST ARIZONA

CITY           SKY/WX    TMP DP  RH WIND       PRES   REMARKS
WINSLOW        NOT AVBL
SAINT JOHNS    FAIR      89  38  16 SW13G21   30.14F
SHOW LOW       SUNNY     82  37  20 SW12      30.24S
$$

AZZ023-050200-
GREATER PHOENIX AREA

CITY           SKY/WX    TMP DP  RH WIND       PRES   REMARKS
PHOENIX        MOSUNNY  109  40   9 NW8       29.76F HX 103
BUCKEYE        SUNNY    108  41  10 W7        29.77F HX 102
GLENDALE       MOSUNNY  109  37   8 S12       29.78F HX 103
LUKE AFB       SUNNY    109  42  10 SW13      29.75F HX 103
DEER VALLEY    SUNNY    107  41  10 SW13      29.78  HX 101
SCOTTSDALE     SUNNY    107  38   9 SW14      29.81F HX 101
MESA-FALCON    MOSUNNY  109  37   8 W12       29.79F HX 103
MESA-GATEWAY   SUNNY    108  43  11 NW13      29.81F HX 102
CHANDLER       MOSUNNY  108  39   9 W12       29.78F HX 101
$$

AZZ027-028-050200-
SOUTHWEST MARICOPA COUNTY AND PINAL COUNTY

CITY           SKY/WX    TMP DP  RH WIND       PRES   REMARKS
CASA GRANDE    SUNNY    106  48  14 W13       29.79F HX 102
$$

AZZ503-504-507>509-050200-
SOUTHEAST ARIZONA

CITY           SKY/WX    TMP DP  RH WIND       PRES   REMARKS
TUCSON         SUNNY    104  45  13 N10       29.91S HX 100
DAVIS-MONTHAN  SUNNY    101  47  15 NW9       29.90S
RYAN FIELD     SUNNY    104  48  15 NW7       29.89F HX 100
NOGALES        MOSUNNY   94  50  22 NW7       30.02S
SIERRA VISTA   MOSUNNY   92  48  22 NW10      30.10S
SAFFORD        PTSUNNY  103  38  10 NW16G23   29.89F
$$

AZZ020-021-025-026-031-050200-
SOUTHWEST ARIZONA

CITY           SKY/WX    TMP DP  RH WIND       PRES   REMARKS
YUMA           NOT AVBL
$$

CAZ031-033-041-043-047-048-061-050200-
SOUTHERN CALIFORNIA

CITY           SKY/WX    TMP DP  RH WIND       PRES   REMARKS
DOWNTOWN L.A.  SUNNY     80  58  46 W6        29.88F
L.A. AIRPORT   MOSUNNY   75  60  59 W20       29.89F
SAN DIEGO      SUNNY     78  65  63 W12       29.89F
BURBANK        SUNNY     87  56  34 S10       29.89S
ONTARIO        SUNNY     91  56  30 SW12      29.88F
RIVERSIDE      SUNNY     92  50  23 W6        29.88F
PALM SPRINGS   SUNNY    111  39   8 NW10G17   29.73F HX 105
EL CENTRO NAS  MOSUNNY  111  32   6 CALM      29.70F HX 103
IMPERIAL       SUNNY    111  33   7 VRB3      29.68F HX 103
BLYTHE         MOSUNNY  112  30   6 SW10G18   29.70F HX 104
$$

NVZ020-UTZ003-050200-
SOUTHERN NEVADA-UTAH

CITY           SKY/WX    TMP DP  RH WIND       PRES   REMARKS
LAS VEGAS      NOT AVBL
SALT LAKE CITY PTSUNNY   90  47  22 S14       29.97F
$$

NMZ009-TXZ055-050200-
NEW MEXICO-WEST TEXAS

CITY           SKY/WX    TMP DP  RH WIND       PRES   REMARKS
ALBUQUERQUE    MOSUNNY   92  43  18 W7        30.10F
EL PASO        FAIR      97  43  15 NW10      29.99S
$$


........................KEY........................
SKY/WX - SKY CONDITION/WEATHER
TMP    - TEMPERATURE IN FAHRENHEIT
DP     - DEW POINT IN FAHRENHEIT
RH     - RELATIVE HUMIDITY IN PERCENT
WIND   - DIRECTION AND SPEED IN MILES PER HOUR (MPH)
VRB    - VARIABLE WIND DIRECTION
PRES   - MEAN SEA LEVEL PRESSURE IN INCHES OF MERCURY
         F - FALLING PRESSURE   R - RISING PRESSURE
         S - STEADY PRESSURE
VSB    - VISIBILITY IN MILES
HX     - HEAT INDEX IN FAHRENHEIT
WCI    - WIND CHILL INDEX IN FAHRENHEIT
TC     - TEMPERATURE IN CELSIUS WHICH IS ALSO KNOWN AS
         TEMPERATURE IN CENTIGRADE
AFB    - AIR FORCE BASE
         LUKE AFB IS LUKE AIR FORCE BASE
         DAVIS-MONTHAN IS DAVIS-MONTHAN AIR FORCE BASE
NAS    - NAVAL AIR STATION
         EL CENTRO NAS IS EL CENTRO NAVAL AIR STATION
N/A    - NOT AVAILABLE



USA.gov is the U.S. government's official web portal to all federal, state and local government web resources and services.